sat.trackr.live / text

‹ back to catalog

TRANSPORTER-11 OBJECT BF

NORAD 60521 · 2024-149BF

PAYLOAD ACTIVE UNKNOWN

§ Identity

Operator
Country
TBD
Launch date
2024-08-16
Launch site
AFWTR
Launch vehicle
Mass (kg)
RCS (m²)

External: N2YO · Heavens-Above · Gunter

§ Orbital elements

Epoch: 2026-05-25T04:48:38.822112Z

Period
91.41 min
Inclination
97.3776°
Eccentricity
0.0002441
Mean motion
15.75349872 rev/d
Perigee alt
342.0 km
Apogee alt
345.3 km
Semi-major
6,721.8 km
B*
9.8875e-4
RAAN
239.5318°
Arg perigee
262.4698°
Mean anomaly
97.6290°
Rev number
9,945

§ Raw data

TRANSPORTER-11 OBJECT BF1 60521U 24149BF  26145.20044933  .00151040  00000+0  98875-3 0  99972 60521  97.3776 239.5318 0002441 262.4698  97.6290 15.75349872 99455

JSON: /api/v1/satellites/60521 · /tle

For live sub-satellite position, see the globe view (requires WebGL).

§ Visibility from observer

Set your observer location to see the next 7 days of passes ≥ 10°. The values pass through the URL so the page stays shareable.

No JS? Fill the form by hand. The geolocation button needs JavaScript.

§ Radio — SatNOGS DB

ModeDescriptionDownlinkUplink
BPSK S-band telemetry 2.219 GHz

1 transmitter · refreshed weekly from db.satnogs.org